Location: Degersen
(52.2871°N, 9.5716°E)
Time: 23:13:42
(UTC+00:00)

Cosmos 1743 Rocket - Pass Details

Date: 20 January 2026
Orbit: 597 x 626 km, 82.6° (Epoch: 7 February)

Event Time Altitude Azimuth Distance (km) Brightness Sun altitude
Rises 05:18:03 0° 206° (SSW) 2,896 6.8 -18.0°
Reaches altitude 10° 05:20:21 10° 213° (SSW) 1,991 5.9 -17.6°
Maximum altitude 05:24:36 45° 287° (WNW) 849 3.8 -17.0°
Drops below altitude 10° 05:28:51 10° 0° (N) 1,991 6.0 -16.4°
Sets 05:31:09 0° 7° (N) 2,896 7.0 -16.0°
